Location: *
(45.1961°N, 1.9694°E)
Time: 03:28:07
(UTC+00:00)

SL-16 R/B - Pass Details

Date: 25 August 2019
Orbit: 842 x 846 km, 71.0° (Epoch: 14 October)

Event Time Altitude Azimuth Distance (km) Brightness Sun altitude
Rises 21:21:18 0° 338° (NNW) 3,415 6.5 -24.4°
Reaches altitude 10° 21:23:53 10° 345° (NNW) 2,477 5.5 -24.7°
Maximum altitude 21:29:19 44° 57° (ENE) 1,155 2.8 -25.3°
Enters shadow 21:29:50 43° 72° (ENE) 1,173 2.7 -25.4°
